| time (UTC) | temp F | wind direction | speed MPH | gust MPH | rain 1hr in | rain 24hr in | rain mn in | humidity % | barometer mb |
| 20260901072003 | 68 | 0 | 0.0 | 0.0 | 0.00 | 0.27 | 0.00 | 100 | 1018.2 |
| 20260901071503 | 68 | 0 | 0.0 | 0.0 | 0.00 | 0.27 | 0.00 | 100 | 1018.1 |
| 20260901071003 | 68 | 0 | 0.0 | 0.0 | 0.00 | 0.27 | 0.00 | 100 | 1018.2 |
| 20260901070503 | 68 | 0 | 0.0 | 0.0 | 0.00 | 0.27 | 0.00 | 100 | 1018.1 |
| 20260901070003 | 68 | 0 | 0.0 | 0.0 | 0.00 | 0.27 | 0.00 | 100 | 1018.1 |
| 20260901065503 | 68 | 0 | 0.0 | 0.0 | 0.00 | 0.27 | 0.00 | 100 | 1018.1 |
| 20260901065003 | 68 | 0 | 0.0 | 0.0 | 0.00 | 0.27 | 0.00 | 100 | 1018.2 |
| 20260901064503 | 68 | 0 | 0.0 | 0.0 | 0.00 | 0.27 | 0.00 | 100 | 1018.1 |
| 20260901064024 | 68 | 0 | 0.0 | 0.0 | 0.00 | 0.27 | 0.00 | 100 | 1018.3 |
| 20260901063503 | 68 | 0 | 0.0 | 0.0 | 0.00 | 0.27 | 0.00 | 100 | 1018.3 |
| 20260901063003 | 68 | 0 | 0.0 | 0.0 | 0.00 | 0.27 | 0.00 | 100 | 1018.4 |
| 20260901062503 | 68 | 0 | 0.0 | 0.0 | 0.00 | 0.27 | 0.00 | 100 | 1018.4 |
| 20260901062003 | 68 | 0 | 0.0 | 0.0 | 0.00 | 0.27 | 0.00 | 100 | 1018.5 |
| 20260901061503 | 68 | 0 | 0.0 | 0.0 | 0.00 | 0.27 | 0.00 | 100 | 1018.4 |
| 20260901061003 | 68 | 163 | 0.0 | 1.0 | 0.00 | 0.27 | 0.00 | 100 | 1018.5 |
| 20260901060503 | 68 | 163 | 0.0 | 1.0 | 0.00 | 0.27 | 0.00 | 100 | 1018.5 |
| 20260901060003 | 68 | 163 | 0.0 | 1.0 | 0.00 | 0.27 | 0.00 | 100 | 1018.6 |
| 20260901055503 | 68 | 163 | 0.0 | 1.0 | 0.00 | 0.27 | 0.00 | 100 | 1018.6 |
| 20260901055003 | 68 | 163 | 0.0 | 1.0 | 0.00 | 0.27 | 0.00 | 100 | 1018.6 |
| 20260901054503 | 68 | 0 | 0.0 | 0.0 | 0.00 | 0.27 | 0.00 | 100 | 1018.7 |
| 20260901054024 | 68 | 163 | 0.0 | 1.0 | 0.00 | 0.28 | 0.00 | 100 | 1018.6 |
| 20260901053524 | 68 | 163 | 0.0 | 1.0 | 0.00 | 0.28 | 0.00 | 100 | 1018.6 |
| 20260901053003 | 68 | 163 | 0.0 | 1.0 | 0.00 | 0.28 | 0.00 | 100 | 1018.7 |
| 20260901052503 | 68 | 163 | 0.0 | 1.0 | 0.00 | 0.28 | 0.00 | 100 | 1018.8 |
| 20260901052024 | 68 | 163 | 0.0 | 1.0 | 0.00 | 0.28 | 0.00 | 100 | 1018.8 |
| 20260901051503 | 68 | 163 | 0.0 | 1.0 | 0.00 | 0.28 | 0.00 | 100 | 1019.0 |
| 20260901051003 | 68 | 163 | 0.0 | 1.0 | 0.00 | 0.28 | 0.00 | 100 | 1018.8 |
| 20260901050503 | 68 | 163 | 0.0 | 1.0 | 0.00 | 0.28 | 0.00 | 100 | 1018.9 |
| 20260901050003 | 68 | 0 | 0.0 | 0.0 | 0.00 | 0.28 | 0.00 | 100 | 1019.1 |
| 20260901045503 | 68 | 0 | 0.0 | 0.0 | 0.00 | 0.28 | 0.00 | 100 | 1019.1 |
| 20260901045024 | 68 | 0 | 0.0 | 0.0 | 0.00 | 0.28 | 0.00 | 100 | 1019.1 |
| 20260901044505 | 68 | 0 | 0.0 | 0.0 | 0.00 | 0.28 | 0.00 | 100 | 1019.2 |
| 20260901044024 | 68 | 0 | 0.0 | 0.0 | 0.00 | 0.28 | 0.00 | 100 | 1019.1 |
| 20260901043524 | 68 | 0 | 0.0 | 0.0 | 0.00 | 0.28 | 0.00 | 100 | 1019.1 |
| 20260901043003 | 68 | 0 | 0.0 | 0.0 | 0.00 | 0.28 | 0.00 | 100 | 1019.1 |
| 20260901042503 | 68 | 0 | 0.0 | 0.0 | 0.00 | 0.28 | 0.00 | 100 | 1019.0 |
| 20260901042003 | 68 | 0 | 0.0 | 0.0 | 0.00 | 0.28 | 0.00 | 100 | 1019.1 |
| 20260901041524 | 68 | 0 | 0.0 | 0.0 | 0.00 | 0.29 | 0.00 | 100 | 1019.0 |
| 20260901041003 | 68 | 0 | 0.0 | 0.0 | 0.00 | 0.29 | 0.00 | 100 | 1019.1 |
| 20260901040524 | 68 | 0 | 0.0 | 0.0 | 0.00 | 0.31 | 0.00 | 100 | 1019.0 |
| 20260901040004 | 68 | 0 | 0.0 | 0.0 | 0.00 | 0.31 | 0.00 | 100 | 1018.9 |
| 20260901035506 | 68 | 0 | 0.0 | 0.0 | 0.00 | 0.31 | 0.31 | 100 | 1019.0 |
| 20260901035005 | 68 | 0 | 0.0 | 0.0 | 0.00 | 0.31 | 0.31 | 100 | 1019.0 |
| 20260901034505 | 68 | 0 | 0.0 | 0.0 | 0.01 | 0.31 | 0.31 | 100 | 1019.1 |
| 20260901034005 | 68 | 0 | 0.0 | 0.0 | 0.01 | 0.31 | 0.31 | 100 | 1019.0 |
| 20260901033505 | 68 | 0 | 0.0 | 0.0 | 0.02 | 0.31 | 0.31 | 100 | 1019.1 |
| 20260901033005 | 68 | 163 | 0.0 | 1.0 | 0.02 | 0.31 | 0.31 | 100 | 1019.1 |
| 20260901032505 | 68 | 163 | 0.0 | 1.0 | 0.03 | 0.31 | 0.31 | 100 | 1019.0 |
| 20260901032005 | 68 | 163 | 0.0 | 1.0 | 0.03 | 0.31 | 0.31 | 100 | 1019.0 |
| 20260901031505 | 68 | 163 | 0.0 | 1.0 | 0.03 | 0.31 | 0.31 | 100 | 1019.0 |
| 20260901031005 | 68 | 167 | 0.0 | 3.0 | 0.03 | 0.31 | 0.31 | 100 | 1019.2 |
| 20260901030505 | 68 | 173 | 0.0 | 4.0 | 0.03 | 0.31 | 0.31 | 100 | 1019.0 |
| 20260901030005 | 68 | 171 | 0.0 | 4.0 | 0.03 | 0.31 | 0.31 | 100 | 1019.1 |
| 20260901025526 | 68 | 162 | 0.0 | 1.0 | 0.03 | 0.31 | 0.31 | 100 | 1019.1 |
| 20260901025005 | 68 | 162 | 0.0 | 3.0 | 0.03 | 0.31 | 0.31 | 100 | 1019.1 |
| 20260901024505 | 68 | 162 | 0.0 | 3.0 | 0.02 | 0.30 | 0.30 | 100 | 1019.2 |
| 20260901024005 | 68 | 162 | 0.0 | 1.0 | 0.02 | 0.30 | 0.30 | 100 | 1019.5 |
| 20260901023505 | 68 | 162 | 0.0 | 1.0 | 0.01 | 0.29 | 0.29 | 100 | 1019.4 |
| 20260901023025 | 68 | 162 | 0.0 | 1.0 | 0.01 | 0.29 | 0.29 | 100 | 1019.6 |
| 20260901022504 | 68 | 162 | 0.0 | 1.0 | 0.00 | 0.28 | 0.28 | 100 | 1019.6 |
| 20260901022005 | 68 | 162 | 0.0 | 1.0 | 0.00 | 0.28 | 0.28 | 100 | 1019.7 |
| 20260901021505 | 68 | 162 | 0.0 | 1.0 | 0.00 | 0.28 | 0.28 | 100 | 1019.8 |
| 20260901021005 | 68 | 162 | 0.0 | 1.0 | 0.00 | 0.28 | 0.28 | 99 | 1019.6 |
| 20260901020505 | 68 | 162 | 0.0 | 1.0 | 0.00 | 0.28 | 0.28 | 100 | 1019.7 |
| 20260901020005 | 68 | 162 | 0.0 | 1.0 | 0.00 | 0.28 | 0.28 | 100 | 1019.8 |
| 20260901015525 | 68 | 162 | 0.0 | 1.0 | 0.00 | 0.28 | 0.28 | 99 | 1019.8 |
| 20260901015005 | 68 | 162 | 0.0 | 1.0 | 0.00 | 0.28 | 0.28 | 99 | 1019.8 |
| 20260901014504 | 68 | 0 | 0.0 | 0.0 | 0.00 | 0.28 | 0.28 | 99 | 1019.9 |
| 20260901014005 | 68 | 0 | 0.0 | 0.0 | 0.00 | 0.28 | 0.28 | 99 | 1019.9 |
| 20260901013526 | 68 | 0 | 0.0 | 0.0 | 0.00 | 0.28 | 0.28 | 99 | 1019.9 |
| 20260901013004 | 68 | 162 | 0.0 | 1.0 | 0.00 | 0.28 | 0.28 | 99 | 1019.8 |
| 20260901012505 | 68 | 162 | 0.0 | 1.0 | 0.00 | 0.28 | 0.28 | 99 | 1019.8 |
| 20260901012026 | 68 | 162 | 0.0 | 1.0 | 0.00 | 0.28 | 0.28 | 99 | 1019.8 |
| 20260901011505 | 68 | 0 | 0.0 | 0.0 | 0.00 | 0.28 | 0.28 | 99 | 1019.9 |
| 20260901011005 | 68 | 0 | 0.0 | 0.0 | 0.00 | 0.28 | 0.28 | 99 | 1019.8 |
| 20260901010505 | 68 | 0 | 0.0 | 0.0 | 0.00 | 0.28 | 0.28 | 99 | 1019.7 |
| 20260901010005 | 68 | 162 | 0.0 | 1.0 | 0.00 | 0.28 | 0.28 | 99 | 1019.6 |
| 20260901005504 | 68 | 162 | 0.0 | 1.0 | 0.00 | 0.28 | 0.28 | 99 | 1019.5 |
| 20260901005005 | 68 | 162 | 0.0 | 1.0 | 0.00 | 0.28 | 0.28 | 99 | 1019.4 |
| 20260901004505 | 68 | 162 | 0.0 | 1.0 | 0.00 | 0.28 | 0.28 | 99 | 1019.4 |
| 20260901004025 | 68 | 183 | 0.0 | 3.0 | 0.00 | 0.28 | 0.28 | 99 | 1019.3 |
| 20260901003505 | 67 | 187 | 0.0 | 3.0 | 0.00 | 0.28 | 0.28 | 99 | 1019.4 |
| 20260901003004 | 68 | 190 | 0.0 | 3.0 | 0.00 | 0.28 | 0.28 | 99 | 1019.4 |
| 20260901002505 | 68 | 190 | 0.0 | 1.0 | 0.00 | 0.28 | 0.28 | 99 | 1019.5 |
| 20260901002004 | 68 | 190 | 0.0 | 1.0 | 0.00 | 0.28 | 0.28 | 99 | 1019.4 |
| 20260901001504 | 68 | 0 | 0.0 | 0.0 | 0.00 | 0.28 | 0.28 | 99 | 1019.4 |
| 20260901001004 | 68 | 0 | 0.0 | 0.0 | 0.00 | 0.28 | 0.28 | 99 | 1019.4 |
| 20260901000504 | 68 | 190 | 0.0 | 1.0 | 0.00 | 0.28 | 0.28 | 99 | 1019.5 |
| 20260901000004 | 68 | 190 | 0.0 | 1.0 | 0.00 | 0.28 | 0.28 | 99 | 1019.4 |
| 20260831235504 | 68 | 190 | 0.0 | 1.0 | 0.00 | 0.28 | 0.28 | 99 | 1019.3 |
| 20260831235026 | 68 | 190 | 0.0 | 1.0 | 0.00 | 0.28 | 0.28 | 99 | 1019.5 |
| 20260831234505 | 68 | 190 | 0.0 | 1.0 | 0.00 | 0.28 | 0.28 | 99 | 1019.5 |
| 20260831234025 | 68 | 190 | 0.0 | 1.0 | 0.00 | 0.28 | 0.28 | 99 | 1019.5 |
| 20260831233525 | 68 | 190 | 0.0 | 1.0 | 0.00 | 0.28 | 0.28 | 99 | 1019.6 |
| 20260831233026 | 68 | 190 | 0.0 | 1.0 | 0.00 | 0.28 | 0.28 | 99 | 1019.6 |
| 20260831232504 | 68 | 190 | 0.0 | 1.0 | 0.00 | 0.28 | 0.28 | 99 | 1019.6 |
| 20260831232004 | 68 | 190 | 0.0 | 1.0 | 0.00 | 0.28 | 0.28 | 99 | 1019.6 |
| 20260831231505 | 68 | 187 | 0.0 | 4.0 | 0.00 | 0.28 | 0.28 | 99 | 1019.6 |
| 20260831231004 | 68 | 186 | 0.0 | 4.0 | 0.00 | 0.28 | 0.28 | 99 | 1019.6 |
| 20260831230504 | 68 | 0 | 0.0 | 0.0 | 0.00 | 0.28 | 0.28 | 99 | 1019.7 |
| 20260831230004 | 68 | 0 | 0.0 | 0.0 | 0.00 | 0.28 | 0.28 | 99 | 1019.7 |
| 20260831225504 | 68 | 0 | 0.0 | 0.0 | 0.00 | 0.28 | 0.28 | 99 | 1019.8 |
| 20260831225004 | 68 | 190 | 0.0 | 1.0 | 0.01 | 0.28 | 0.28 | 99 | 1019.9 |
| 20260831224504 | 68 | 190 | 0.0 | 1.0 | 0.01 | 0.28 | 0.28 | 99 | 1020.0 |
| 20260831224004 | 68 | 190 | 0.0 | 1.0 | 0.01 | 0.28 | 0.28 | 99 | 1020.0 |
| 20260831223504 | 68 | 186 | 1.0 | 3.0 | 0.03 | 0.28 | 0.28 | 99 | 1020.1 |
| 20260831223025 | 68 | 191 | 1.0 | 3.0 | 0.09 | 0.28 | 0.28 | 99 | 1020.1 |
| 20260831222504 | 68 | 201 | 1.0 | 3.0 | 0.10 | 0.28 | 0.28 | 99 | 1020.1 |
| 20260831222004 | 68 | 201 | 1.0 | 3.0 | 0.10 | 0.28 | 0.28 | 99 | 1020.2 |
| 20260831221504 | 68 | 201 | 1.0 | 3.0 | 0.10 | 0.28 | 0.28 | 99 | 1020.3 |
| 20260831221025 | 68 | 201 | 1.0 | 3.0 | 0.10 | 0.28 | 0.28 | 99 | 1020.3 |
| 20260831220504 | 68 | 201 | 0.0 | 3.0 | 0.10 | 0.28 | 0.28 | 99 | 1020.2 |
| 20260831220004 | 68 | 201 | 0.0 | 3.0 | 0.10 | 0.28 | 0.28 | 99 | 1020.2 |
| 20260831215504 | 68 | 201 | 0.0 | 3.0 | 0.10 | 0.28 | 0.28 | 99 | 1020.3 |
| 20260831215004 | 68 | 201 | 0.0 | 1.0 | 0.09 | 0.27 | 0.27 | 99 | 1020.3 |
| 20260831214504 | 68 | 201 | 0.0 | 3.0 | 0.09 | 0.27 | 0.27 | 99 | 1020.5 |
| 20260831214004 | 68 | 201 | 0.0 | 3.0 | 0.09 | 0.27 | 0.27 | 99 | 1020.4 |
| 20260831213504 | 68 | 201 | 0.0 | 1.0 | 0.07 | 0.25 | 0.25 | 99 | 1020.5 |
| 20260831213004 | 68 | 201 | 0.0 | 1.0 | 0.01 | 0.19 | 0.19 | 99 | 1020.6 |
| 20260831212504 | 68 | 204 | 0.0 | 1.0 | 0.00 | 0.18 | 0.18 | 99 | 1020.5 |
| 20260831212004 | 68 | 211 | 0.0 | 1.0 | 0.00 | 0.18 | 0.18 | 98 | 1020.3 |
| 20260831211504 | 68 | 222 | 0.0 | 1.0 | 0.00 | 0.18 | 0.18 | 99 | 1020.4 |
| 20260831211004 | 68 | 187 | 0.0 | 3.0 | 0.00 | 0.18 | 0.18 | 99 | 1020.5 |
| 20260831210504 | 68 | 172 | 0.0 | 6.0 | 0.00 | 0.18 | 0.18 | 99 | 1020.5 |
| 20260831210004 | 68 | 164 | 0.0 | 6.0 | 0.00 | 0.18 | 0.18 | 99 | 1020.4 |
| 20260831205504 | 68 | 159 | 0.0 | 1.0 | 0.00 | 0.18 | 0.18 | 99 | 1020.5 |
| 20260831205004 | 68 | 159 | 0.0 | 1.0 | 0.00 | 0.18 | 0.18 | 98 | 1020.4 |
| 20260831204504 | 68 | 159 | 0.0 | 1.0 | 0.00 | 0.18 | 0.18 | 98 | 1020.5 |
| 20260831204004 | 68 | 161 | 0.0 | 4.0 | 0.00 | 0.18 | 0.18 | 98 | 1020.7 |
| 20260831203525 | 68 | 170 | 0.0 | 4.0 | 0.00 | 0.18 | 0.18 | 98 | 1020.6 |
| 20260831203004 | 68 | 174 | 1.0 | 3.0 | 0.00 | 0.18 | 0.18 | 99 | 1020.6 |
| 20260831202504 | 68 | 169 | 1.0 | 4.0 | 0.00 | 0.18 | 0.18 | 99 | 1020.7 |
| 20260831202004 | 68 | 165 | 0.0 | 4.0 | 0.00 | 0.18 | 0.18 | 99 | 1020.6 |
| 20260831201504 | 68 | 157 | 0.0 | 3.0 | 0.00 | 0.18 | 0.18 | 99 | 1020.7 |
| 20260831201004 | 68 | 144 | 0.0 | 3.0 | 0.00 | 0.18 | 0.18 | 99 | 1020.7 |
| 20260831200504 | 68 | 142 | 0.0 | 3.0 | 0.00 | 0.18 | 0.18 | 99 | 1020.7 |
| 20260831200004 | 68 | 157 | 1.0 | 3.0 | 0.00 | 0.18 | 0.18 | 99 | 1020.6 |
| 20260831195504 | 68 | 171 | 1.0 | 3.0 | 0.00 | 0.18 | 0.18 | 99 | 1020.8 |
| 20260831195004 | 68 | 168 | 1.0 | 3.0 | 0.00 | 0.18 | 0.18 | 99 | 1020.8 |
| 20260831194504 | 68 | 173 | 1.0 | 6.0 | 0.00 | 0.18 | 0.18 | 99 | 1020.8 |
| 20260831194004 | 67 | 169 | 1.0 | 6.0 | 0.01 | 0.18 | 0.18 | 99 | 1020.9 |
| 20260831193504 | 67 | 168 | 1.0 | 6.0 | 0.01 | 0.18 | 0.18 | 99 | 1020.9 |
| 20260831193004 | 67 | 173 | 1.0 | 7.0 | 0.01 | 0.18 | 0.18 | 98 | 1021.0 |
| 20260831192504 | 67 | 171 | 1.0 | 7.0 | 0.01 | 0.18 | 0.18 | 98 | 1021.1 |
| 20260831192004 | 67 | 168 | 1.0 | 3.0 | 0.02 | 0.18 | 0.18 | 98 | 1021.1 |
| 20260831191504 | 67 | 161 | 0.0 | 3.0 | 0.03 | 0.18 | 0.18 | 98 | 1021.3 |
| 20260831191025 | 67 | 155 | 0.0 | 3.0 | 0.04 | 0.18 | 0.18 | 98 | 1021.3 |
| 20260831190504 | 67 | 155 | 0.0 | 3.0 | 0.06 | 0.18 | 0.18 | 98 | 1021.4 |
| 20260831190004 | 67 | 155 | 0.0 | 3.0 | 0.07 | 0.18 | 0.18 | 98 | 1021.5 |
| 20260831185504 | 67 | 159 | 0.0 | 4.0 | 0.08 | 0.18 | 0.18 | 98 | 1021.7 |
| 20260831185025 | 67 | 163 | 1.0 | 4.0 | 0.10 | 0.18 | 0.18 | 98 | 1021.7 |
| 20260831184504 | 67 | 167 | 0.0 | 4.0 | 0.12 | 0.18 | 0.18 | 98 | 1021.8 |
| 20260831184004 | 67 | 167 | 1.0 | 4.0 | 0.11 | 0.17 | 0.17 | 98 | 1021.8 |
| 20260831183504 | 66 | 166 | 1.0 | 4.0 | 0.11 | 0.17 | 0.17 | 98 | 1021.9 |
| 20260831183004 | 66 | 164 | 0.0 | 4.0 | 0.12 | 0.17 | 0.17 | 98 | 1022.0 |
| 20260831182504 | 66 | 157 | 0.0 | 3.0 | 0.12 | 0.17 | 0.17 | 98 | 1022.0 |
| 20260831182004 | 66 | 158 | 0.0 | 3.0 | 0.11 | 0.16 | 0.16 | 97 | 1022.1 |
| 20260831181504 | 66 | 165 | 0.0 | 1.0 | 0.10 | 0.15 | 0.15 | 97 | 1022.1 |
| 20260831181004 | 66 | 169 | 1.0 | 4.0 | 0.10 | 0.14 | 0.14 | 97 | 1022.1 |
| 20260831180504 | 66 | 171 | 0.0 | 4.0 | 0.08 | 0.12 | 0.12 | 97 | 1022.2 |
| 20260831180004 | 66 | 167 | 1.0 | 6.0 | 0.07 | 0.11 | 0.11 | 97 | 1022.2 |
| 20260831175504 | 66 | 161 | 1.0 | 6.0 | 0.06 | 0.10 | 0.10 | 96 | 1022.3 |
| 20260831175004 | 66 | 157 | 0.0 | 3.0 | 0.04 | 0.08 | 0.08 | 96 | 1022.4 |
| 20260831174525 | 67 | 157 | 0.0 | 1.0 | 0.02 | 0.06 | 0.06 | 96 | 1022.5 |
| 20260831174025 | 67 | 157 | 0.0 | 1.0 | 0.02 | 0.06 | 0.06 | 95 | 1022.5 |
| 20260831173504 | 67 | 157 | 0.0 | 1.0 | 0.02 | 0.06 | 0.06 | 95 | 1022.5 |
| 20260831173004 | 67 | 157 | 0.0 | 1.0 | 0.01 | 0.05 | 0.05 | 96 | 1022.6 |
| 20260831172525 | 67 | 157 | 0.0 | 1.0 | 0.01 | 0.05 | 0.05 | 96 | 1022.5 |
| 20260831172004 | 67 | 157 | 0.0 | 1.0 | 0.01 | 0.05 | 0.05 | 96 | 1022.4 |
| 20260831171504 | 67 | 157 | 0.0 | 1.0 | 0.01 | 0.05 | 0.05 | 96 | 1022.3 |
| 20260831171004 | 67 | 157 | 0.0 | 1.0 | 0.00 | 0.04 | 0.04 | 96 | 1022.4 |
| 20260831170504 | 67 | 0 | 0.0 | 0.0 | 0.00 | 0.04 | 0.04 | 96 | 1022.4 |
| 20260831170004 | 67 | 0 | 0.0 | 0.0 | 0.00 | 0.04 | 0.04 | 96 | 1022.5 |
| 20260831165504 | 67 | 0 | 0.0 | 0.0 | 0.00 | 0.04 | 0.04 | 96 | 1022.4 |
| 20260831165004 | 67 | 0 | 0.0 | 0.0 | 0.00 | 0.04 | 0.04 | 96 | 1022.4 |
| 20260831164504 | 67 | 0 | 0.0 | 0.0 | 0.00 | 0.04 | 0.04 | 95 | 1022.4 |
| 20260831164025 | 67 | 0 | 0.0 | 0.0 | 0.00 | 0.04 | 0.04 | 95 | 1022.5 |
| 20260831163504 | 67 | 0 | 0.0 | 0.0 | 0.00 | 0.04 | 0.04 | 95 | 1022.4 |
| 20260831163004 | 67 | 157 | 0.0 | 1.0 | 0.00 | 0.04 | 0.04 | 95 | 1022.3 |
| 20260831162525 | 67 | 157 | 0.0 | 1.0 | 0.00 | 0.04 | 0.04 | 95 | 1022.4 |
| 20260831162004 | 67 | 157 | 0.0 | 1.0 | 0.00 | 0.04 | 0.04 | 95 | 1022.3 |
| 20260831161504 | 67 | 157 | 0.0 | 1.0 | 0.00 | 0.04 | 0.04 | 94 | 1022.3 |
| 20260831161004 | 67 | 0 | 0.0 | 0.0 | 0.00 | 0.04 | 0.04 | 94 | 1022.5 |
| 20260831160504 | 67 | 157 | 0.0 | 1.0 | 0.00 | 0.04 | 0.04 | 94 | 1022.5 |
| 20260831160004 | 67 | 157 | 0.0 | 1.0 | 0.00 | 0.04 | 0.04 | 93 | 1022.4 |
| 20260831155504 | 67 | 157 | 0.0 | 3.0 | 0.00 | 0.04 | 0.04 | 93 | 1022.4 |
| 20260831155004 | 68 | 154 | 0.0 | 3.0 | 0.00 | 0.04 | 0.04 | 92 | 1022.6 |
| 20260831154504 | 68 | 149 | 0.0 | 3.0 | 0.00 | 0.04 | 0.04 | 91 | 1022.5 |
| 20260831154004 | 68 | 142 | 0.0 | 1.0 | 0.00 | 0.04 | 0.04 | 94 | 1022.5 |
| 20260831153525 | 68 | 142 | 0.0 | 1.0 | 0.00 | 0.04 | 0.04 | 95 | 1022.5 |
| 20260831153025 | 68 | 142 | 0.0 | 1.0 | 0.00 | 0.04 | 0.04 | 94 | 1022.5 |
| 20260831152504 | 68 | 142 | 0.0 | 1.0 | 0.00 | 0.04 | 0.04 | 94 | 1022.5 |
| 20260831152004 | 68 | 142 | 0.0 | 1.0 | 0.00 | 0.04 | 0.04 | 95 | 1022.5 |
| 20260831151504 | 68 | 0 | 0.0 | 0.0 | 0.00 | 0.04 | 0.04 | 95 | 1022.5 |
| 20260831151025 | 68 | 142 | 0.0 | 1.0 | 0.00 | 0.04 | 0.04 | 94 | 1022.4 |
| 20260831150504 | 68 | 142 | 0.0 | 1.0 | 0.00 | 0.04 | 0.04 | 94 | 1022.4 |
| 20260831150004 | 68 | 142 | 0.0 | 1.0 | 0.00 | 0.04 | 0.04 | 94 | 1022.5 |
| 20260831145525 | 68 | 142 | 0.0 | 1.0 | 0.00 | 0.04 | 0.04 | 94 | 1022.4 |
| 20260831145004 | 68 | 0 | 0.0 | 0.0 | 0.00 | 0.04 | 0.04 | 94 | 1022.3 |
| 20260831144525 | 68 | 0 | 0.0 | 0.0 | 0.00 | 0.04 | 0.04 | 93 | 1022.4 |
| 20260831144004 | 68 | 0 | 0.0 | 0.0 | 0.00 | 0.04 | 0.04 | 93 | 1022.4 |
| 20260831143504 | 68 | 0 | 0.0 | 0.0 | 0.00 | 0.04 | 0.04 | 94 | 1022.5 |
| 20260831143004 | 68 | 0 | 0.0 | 0.0 | 0.00 | 0.04 | 0.04 | 93 | 1022.4 |
| 20260831142504 | 68 | 0 | 0.0 | 0.0 | 0.00 | 0.04 | 0.04 | 93 | 1022.4 |
| 20260831142004 | 68 | 0 | 0.0 | 0.0 | 0.00 | 0.04 | 0.04 | 94 | 1022.3 |
| 20260831141504 | 68 | 0 | 0.0 | 0.0 | 0.00 | 0.04 | 0.04 | 95 | 1022.4 |
| 20260831141004 | 67 | 142 | 0.0 | 1.0 | 0.00 | 0.04 | 0.04 | 95 | 1022.3 |
| 20260831140505 | 67 | 142 | 0.0 | 3.0 | 0.00 | 0.04 | 0.04 | 95 | 1022.3 |
| 20260831140004 | 67 | 142 | 0.0 | 3.0 | 0.00 | 0.04 | 0.04 | 94 | 1022.5 |
| 20260831135504 | 67 | 142 | 0.0 | 1.0 | 0.00 | 0.04 | 0.04 | 95 | 1022.5 |
| 20260831135025 | 67 | 142 | 0.0 | 1.0 | 0.00 | 0.04 | 0.04 | 96 | 1022.5 |
| 20260831134504 | 67 | 0 | 0.0 | 0.0 | 0.00 | 0.04 | 0.04 | 97 | 1022.5 |
| 20260831134025 | 67 | 142 | 0.0 | 1.0 | 0.00 | 0.04 | 0.04 | 97 | 1022.4 |
| 20260831133504 | 67 | 137 | 0.0 | 1.0 | 0.00 | 0.04 | 0.04 | 97 | 1022.4 |
| 20260831133004 | 67 | 164 | 0.0 | 3.0 | 0.00 | 0.04 | 0.04 | 97 | 1022.5 |
| 20260831132504 | 66 | 163 | 0.0 | 3.0 | 0.00 | 0.04 | 0.04 | 97 | 1022.5 |
| 20260831132004 | 66 | 176 | 1.0 | 3.0 | 0.00 | 0.04 | 0.04 | 97 | 1022.3 |
| 20260831131504 | 66 | 206 | 0.0 | 3.0 | 0.00 | 0.04 | 0.04 | 98 | 1022.4 |
| 20260831131004 | 66 | 246 | 0.0 | 1.0 | 0.00 | 0.04 | 0.04 | 97 | 1022.5 |
| 20260831130504 | 66 | 246 | 0.0 | 1.0 | 0.00 | 0.04 | 0.04 | 98 | 1022.5 |
| 20260831130004 | 66 | 248 | 0.0 | 1.0 | 0.00 | 0.04 | 0.04 | 98 | 1022.5 |
| 20260831125504 | 66 | 254 | 0.0 | 1.0 | 0.00 | 0.04 | 0.04 | 98 | 1022.6 |
| 20260831125004 | 66 | 204 | 1.0 | 3.0 | 0.00 | 0.04 | 0.04 | 98 | 1022.6 |
| 20260831124524 | 65 | 206 | 1.0 | 3.0 | 0.00 | 0.04 | 0.04 | 98 | 1022.5 |
| 20260831124004 | 65 | 233 | 0.0 | 3.0 | 0.00 | 0.04 | 0.04 | 99 | 1022.5 |
| 20260831123504 | 66 | 233 | 0.0 | 1.0 | 0.00 | 0.04 | 0.04 | 99 | 1022.5 |
| 20260831123003 | 66 | 0 | 0.0 | 0.0 | 0.00 | 0.04 | 0.04 | 99 | 1022.5 |
| 20260831122504 | 65 | 0 | 0.0 | 0.0 | 0.00 | 0.04 | 0.04 | 99 | 1022.4 |
| 20260831122004 | 65 | 0 | 0.0 | 0.0 | 0.00 | 0.04 | 0.04 | 99 | 1022.6 |
| 20260831121504 | 65 | 0 | 0.0 | 0.0 | 0.00 | 0.04 | 0.04 | 99 | 1022.5 |
| 20260831121004 | 65 | 0 | 0.0 | 0.0 | 0.00 | 0.04 | 0.04 | 99 | 1022.4 |
| 20260831120504 | 65 | 0 | 0.0 | 0.0 | 0.00 | 0.04 | 0.04 | 99 | 1022.4 |
| 20260831120004 | 65 | 0 | 0.0 | 0.0 | 0.00 | 0.04 | 0.04 | 99 | 1022.4 |
| 20260831115504 | 64 | 0 | 0.0 | 0.0 | 0.00 | 0.04 | 0.04 | 99 | 1022.4 |
| 20260831115004 | 64 | 0 | 0.0 | 0.0 | 0.00 | 0.04 | 0.04 | 99 | 1022.5 |
| 20260831114503 | 64 | 0 | 0.0 | 0.0 | 0.00 | 0.04 | 0.04 | 99 | 1022.7 |
| 20260831114004 | 64 | 0 | 0.0 | 0.0 | 0.00 | 0.04 | 0.04 | 99 | 1022.7 |
| 20260831113503 | 64 | 0 | 0.0 | 0.0 | 0.00 | 0.04 | 0.04 | 99 | 1022.7 |
| 20260831113004 | 64 | 0 | 0.0 | 0.0 | 0.00 | 0.04 | 0.04 | 99 | 1022.8 |
| 20260831112503 | 64 | 0 | 0.0 | 0.0 | 0.00 | 0.04 | 0.04 | 99 | 1022.4 |
| 20260831112003 | 64 | 0 | 0.0 | 0.0 | 0.00 | 0.04 | 0.04 | 99 | 1022.4 |
| 20260831111503 | 64 | 0 | 0.0 | 0.0 | 0.00 | 0.04 | 0.04 | 99 | 1022.5 |
| 20260831111004 | 64 | 0 | 0.0 | 0.0 | 0.00 | 0.04 | 0.04 | 99 | 1022.4 |
| 20260831110524 | 64 | 233 | 0.0 | 1.0 | 0.00 | 0.04 | 0.04 | 99 | 1022.4 |
| 20260831110004 | 64 | 233 | 0.0 | 1.0 | 0.00 | 0.04 | 0.04 | 99 | 1022.3 |
| 20260831105524 | 64 | 233 | 0.0 | 1.0 | 0.00 | 0.04 | 0.04 | 99 | 1022.1 |
| 20260831105003 | 64 | 233 | 0.0 | 1.0 | 0.00 | 0.04 | 0.04 | 99 | 1021.8 |
| 20260831104524 | 64 | 233 | 0.0 | 1.0 | 0.00 | 0.04 | 0.04 | 99 | 1022.0 |
| 20260831104003 | 64 | 233 | 0.0 | 1.0 | 0.00 | 0.04 | 0.04 | 99 | 1022.0 |
| 20260831103503 | 64 | 0 | 0.0 | 0.0 | 0.00 | 0.04 | 0.04 | 99 | 1022.0 |
| 20260831103004 | 64 | 0 | 0.0 | 0.0 | 0.00 | 0.04 | 0.04 | 99 | 1021.9 |
| 20260831102503 | 64 | 233 | 0.0 | 1.0 | 0.00 | 0.04 | 0.04 | 99 | 1021.9 |
| 20260831102003 | 64 | 233 | 0.0 | 3.0 | 0.00 | 0.04 | 0.04 | 99 | 1021.9 |
| 20260831101504 | 64 | 233 | 0.0 | 3.0 | 0.00 | 0.04 | 0.04 | 99 | 1021.7 |
| 20260831101003 | 64 | 233 | 0.0 | 1.0 | 0.00 | 0.04 | 0.04 | 99 | 1021.9 |
| 20260831100503 | 64 | 233 | 0.0 | 1.0 | 0.00 | 0.04 | 0.04 | 99 | 1021.8 |
| 20260831100003 | 64 | 0 | 0.0 | 0.0 | 0.00 | 0.04 | 0.04 | 99 | 1021.8 |
| 20260831095524 | 64 | 0 | 0.0 | 0.0 | 0.00 | 0.04 | 0.04 | 99 | 1021.9 |
| 20260831095024 | 64 | 0 | 0.0 | 0.0 | 0.00 | 0.04 | 0.04 | 99 | 1021.9 |
| 20260831094503 | 64 | 0 | 0.0 | 0.0 | 0.00 | 0.04 | 0.04 | 99 | 1021.8 |
| 20260831094003 | 64 | 0 | 0.0 | 0.0 | 0.00 | 0.04 | 0.04 | 99 | 1021.7 |
| 20260831093503 | 64 | 233 | 0.0 | 1.0 | 0.00 | 0.04 | 0.04 | 99 | 1021.8 |
| 20260831093003 | 64 | 233 | 0.0 | 1.0 | 0.00 | 0.04 | 0.04 | 99 | 1021.8 |
| 20260831092503 | 64 | 233 | 0.0 | 1.0 | 0.00 | 0.04 | 0.04 | 98 | 1021.9 |
| 20260831092024 | 64 | 0 | 0.0 | 0.0 | 0.00 | 0.04 | 0.04 | 98 | 1022.0 |
| 20260831091524 | 64 | 0 | 0.0 | 0.0 | 0.00 | 0.04 | 0.04 | 99 | 1021.9 |
| 20260831091024 | 64 | 233 | 0.0 | 1.0 | 0.00 | 0.04 | 0.04 | 98 | 1022.0 |
| 20260831090503 | 64 | 233 | 0.0 | 1.0 | 0.00 | 0.04 | 0.04 | 98 | 1022.0 |
| 20260831090003 | 64 | 233 | 0.0 | 1.0 | 0.00 | 0.04 | 0.04 | 98 | 1021.9 |
| 20260831085503 | 64 | 0 | 0.0 | 0.0 | 0.00 | 0.04 | 0.04 | 98 | 1021.8 |
| 20260831085024 | 64 | 0 | 0.0 | 0.0 | 0.00 | 0.04 | 0.04 | 98 | 1021.8 |
| 20260831084503 | 64 | 0 | 0.0 | 0.0 | 0.00 | 0.04 | 0.04 | 98 | 1021.7 |
| 20260831084003 | 64 | 0 | 0.0 | 0.0 | 0.00 | 0.04 | 0.04 | 98 | 1021.7 |
| 20260831083503 | 64 | 0 | 0.0 | 0.0 | 0.00 | 0.04 | 0.04 | 98 | 1021.7 |
| 20260831083003 | 64 | 233 | 0.0 | 1.0 | 0.00 | 0.04 | 0.04 | 98 | 1021.8 |
| 20260831082503 | 64 | 233 | 0.0 | 1.0 | 0.00 | 0.04 | 0.04 | 98 | 1021.8 |
| 20260831082003 | 64 | 233 | 0.0 | 1.0 | 0.00 | 0.04 | 0.04 | 98 | 1021.8 |
| 20260831081503 | 64 | 0 | 0.0 | 0.0 | 0.00 | 0.04 | 0.04 | 98 | 1021.8 |
| 20260831081003 | 64 | 0 | 0.0 | 0.0 | 0.00 | 0.04 | 0.04 | 98 | 1021.6 |
| 20260831080503 | 64 | 0 | 0.0 | 0.0 | 0.00 | 0.04 | 0.04 | 98 | 1021.6 |
| 20260831080024 | 64 | 0 | 0.0 | 0.0 | 0.00 | 0.04 | 0.04 | 98 | 1021.6 |
| 20260831075503 | 64 | 0 | 0.0 | 0.0 | 0.00 | 0.04 | 0.04 | 98 | 1021.6 |
| 20260831075003 | 64 | 233 | 0.0 | 1.0 | 0.00 | 0.04 | 0.04 | 98 | 1021.5 |
| 20260831074503 | 64 | 233 | 0.0 | 3.0 | 0.00 | 0.04 | 0.04 | 98 | 1021.6 |
| 20260831074003 | 64 | 233 | 0.0 | 3.0 | 0.00 | 0.04 | 0.04 | 98 | 1021.7 |
| 20260831073503 | 64 | 233 | 0.0 | 1.0 | 0.00 | 0.04 | 0.04 | 98 | 1021.6 |
| 20260831073003 | 64 | 233 | 0.0 | 1.0 | 0.00 | 0.04 | 0.04 | 98 | 1021.6 |
| 20260831072503 | 64 | 233 | 0.0 | 1.0 | 0.00 | 0.04 | 0.04 | 98 | 1021.5 |